Flag for Haiti Weather past 2 weeks in Port-au-Prince, Haiti

Now
73 °F

Passing clouds.


Feels Like: N/A
Forecast: 72 / 89 °F
Wind: No wind

Location: Santiago

Current Time: May 29, 2015 at 6:52:44 AM

Latest Report: May 29, 2015 at 6:00 AM


Visibility: N/A

Pressure: 29.95 "Hg

Humidity: N/A

Dew point: N/A

Location of Port-au-PrinceLocation

Historic Weather in Port-au-Prince — Graph

°F

Port-au-Prince temperature yesterday

Maximum temperature yesterday: 86 °F (at 12:00 PM)
Minimum temperature yesterday: 72 °F (at 2:00 AM)
Average temperature yesterday: 79 °F

Past Weeks' High & Low Weather Summary

 TemperatureHumidityPressure
High91 °F (May 14, 2:00 PM)100% (May 18, 5:00 AM)30.21 "Hg (May 18, 5:00 AM)
Low66 °F (May 27, 6:00 AM)41% (May 15, 3:00 PM)29.86 "Hg (May 14, 11:00 PM)
Average79 °F76%30.02 "Hg
* Reported May 14 5:00 AM — May 29 5:00 AM, Port-au-Prince, Weather by CustomWeather, © 2015

Note: Actual official high and low records may vary slightly from our data, if they occured in-between our weather recording intervals... More about our weather records

Advertising

Port-au-Prince weather history for previous 24 hours

 ConditionsComfort  
Time TempWeatherWind HumidityBarometerVisibility
5:00 AM
Fri, May 29
73 °FPassing clouds.No wind94%29.95 "HgN/A
4:00 AM73 °FPassing clouds.No wind94%29.95 "HgN/A
3:00 AM73 °FPassing clouds.No wind94%29.95 "HgN/A
2:00 AM73 °FPassing clouds.No wind94%29.95 "HgN/A
1:00 AM73 °FPassing clouds.No wind100%30.01 "HgN/A
12:00 AM73 °FPassing clouds.7 mph94%29.95 "HgN/A
11:00 PM
Thu, May 28
75 °FPassing clouds.9 mph83%30.01 "HgN/A
10:00 PM79 °FPassing clouds.9 mph74%29.95 "HgN/A
9:00 PM79 °FPassing clouds.9 mph74%29.98 "HgN/A
8:00 PM81 °FPassing clouds.12 mph70%29.95 "HgN/A
7:00 PM84 °FScattered clouds.9 mph62%29.92 "HgN/A
6:00 PM84 °FPartly sunny.9 mph62%29.92 "HgN/A
5:00 PM84 °FPartly sunny.12 mph58%29.89 "HgN/A
4:00 PM84 °FPartly sunny.9 mph62%29.92 "HgN/A
3:00 PM86 °FPartly sunny.12 mph59%29.92 "HgN/A
2:00 PM86 °FPartly sunny.14 mph59%29.95 "HgN/A
1:00 PM84 °FScattered clouds.12 mph58%29.95 "HgN/A
12:00 PM86 °FScattered clouds.12 mph59%29.98 "HgN/A
11:00 AM81 °FScattered clouds.12 mph70%30.01 "HgN/A
10:00 AM81 °FScattered clouds.7 mph70%29.98 "HgN/A
9:00 AM75 °FPartly sunny.5 mph83%29.98 "HgN/A
8:00 AM73 °FPartly sunny.7 mph89%29.98 "HgN/A
7:00 AM73 °FScattered clouds.6 mph89%29.95 "HgN/A
6:00 AM73 °FPassing clouds.5 mph89%29.95 "HgN/A
Weather by CustomWeather, © 2015

See weather overviewHow to use our weather pages